Year,Month,Day,Hour,Minute,Value (Times are PST for windspeed in km/hr)
2007,05,08,00,00,0.30
2007,05,08,00,01,0.20
2007,05,08,00,02,0.30
2007,05,08,00,03,1.20
2007,05,08,00,04,1.40
2007,05,08,00,05,0.10
2007,05,08,00,06,0.00
2007,05,08,00,07,0.80
2007,05,08,00,08,2.90
2007,05,08,00,09,1.00
2007,05,08,00,10,0.20
2007,05,08,00,11,0.10
2007,05,08,00,12,0.30
2007,05,08,00,13,2.50
2007,05,08,00,14,3.40
2007,05,08,00,15,0.80
2007,05,08,00,16,0.20
2007,05,08,00,17,0.00
2007,05,08,00,18,1.40
2007,05,08,00,19,1.80
2007,05,08,00,20,1.50
2007,05,08,00,21,1.60
2007,05,08,00,22,1.40
2007,05,08,00,23,0.20
2007,05,08,00,24,0.20
2007,05,08,00,25,3.30
2007,05,08,00,26,4.60
2007,05,08,00,27,5.50
2007,05,08,00,28,5.40
2007,05,08,00,29,4.50
2007,05,08,00,30,2.80
2007,05,08,00,31,3.10
2007,05,08,00,32,3.50
2007,05,08,00,33,5.80
2007,05,08,00,34,6.10
2007,05,08,00,35,6.50
2007,05,08,00,36,6.10
2007,05,08,00,37,5.30
2007,05,08,00,38,5.40
2007,05,08,00,39,5.50
2007,05,08,00,40,4.60
2007,05,08,00,41,4.30
2007,05,08,00,42,4.40
2007,05,08,00,43,3.60
2007,05,08,00,44,2.70
2007,05,08,00,45,3.70
2007,05,08,00,46,2.30
2007,05,08,00,47,3.70
2007,05,08,00,48,4.10
2007,05,08,00,49,3.60
2007,05,08,00,50,2.50
2007,05,08,00,51,4.40
2007,05,08,00,52,1.90
2007,05,08,00,53,2.60
2007,05,08,00,54,0.90
2007,05,08,00,55,2.00
2007,05,08,00,56,3.70
2007,05,08,00,57,4.30
2007,05,08,00,58,3.50
2007,05,08,00,59,4.00
2007,05,08,01,00,4.00
2007,05,08,01,01,3.80
2007,05,08,01,02,2.90
2007,05,08,01,03,3.00
2007,05,08,01,04,4.80
2007,05,08,01,05,3.60
2007,05,08,01,06,5.20
2007,05,08,01,07,3.80
2007,05,08,01,08,3.30
2007,05,08,01,09,4.30
2007,05,08,01,10,4.70
2007,05,08,01,11,4.40
2007,05,08,01,12,5.30
2007,05,08,01,13,3.30
2007,05,08,01,14,1.00
2007,05,08,01,15,0.50
2007,05,08,01,16,0.30
2007,05,08,01,17,0.30
2007,05,08,01,18,0.80
2007,05,08,01,19,0.00
2007,05,08,01,20,0.10
2007,05,08,01,21,1.50
2007,05,08,01,22,0.60
2007,05,08,01,23,1.00
2007,05,08,01,24,2.50
2007,05,08,01,25,4.20
2007,05,08,01,26,2.60
2007,05,08,01,27,2.30
2007,05,08,01,28,1.40
2007,05,08,01,29,1.40
2007,05,08,01,30,2.30
2007,05,08,01,31,2.40
2007,05,08,01,32,2.40
2007,05,08,01,33,2.70
2007,05,08,01,34,3.00
2007,05,08,01,35,3.30
2007,05,08,01,36,2.10
2007,05,08,01,37,2.50
2007,05,08,01,38,2.70
2007,05,08,01,39,2.60
2007,05,08,01,40,2.50
2007,05,08,01,41,1.50
2007,05,08,01,42,1.60
2007,05,08,01,43,1.00
2007,05,08,01,44,1.20
2007,05,08,01,45,1.90
2007,05,08,01,46,0.50
2007,05,08,01,47,1.90
2007,05,08,01,48,2.20
2007,05,08,01,49,1.70
2007,05,08,01,50,1.80
2007,05,08,01,51,1.20
2007,05,08,01,52,1.20
2007,05,08,01,53,1.40
2007,05,08,01,54,2.00
2007,05,08,01,55,2.90
2007,05,08,01,56,1.70
2007,05,08,01,57,1.00
2007,05,08,01,58,1.00
2007,05,08,01,59,2.20
2007,05,08,02,00,1.30
2007,05,08,02,01,0.80
2007,05,08,02,02,0.50
2007,05,08,02,03,2.30
2007,05,08,02,04,2.30
2007,05,08,02,05,0.30
2007,05,08,02,06,1.20
2007,05,08,02,07,0.60
2007,05,08,02,08,0.30
2007,05,08,02,09,0.30
2007,05,08,02,10,0.20
2007,05,08,02,11,1.30
2007,05,08,02,12,0.40
2007,05,08,02,13,0.60
2007,05,08,02,14,1.20
2007,05,08,02,15,3.00
2007,05,08,02,16,1.90
2007,05,08,02,17,1.40
2007,05,08,02,18,1.10
2007,05,08,02,19,1.10
2007,05,08,02,20,1.20
2007,05,08,02,21,0.80
2007,05,08,02,22,1.80
2007,05,08,02,23,0.10
2007,05,08,02,24,0.50
2007,05,08,02,25,0.00
2007,05,08,02,26,0.30
2007,05,08,02,27,1.00
2007,05,08,02,28,3.40
2007,05,08,02,29,1.40
2007,05,08,02,30,0.20
2007,05,08,02,31,4.10
2007,05,08,02,32,2.30
2007,05,08,02,33,4.30
2007,05,08,02,34,2.00
2007,05,08,02,35,3.30
2007,05,08,02,36,3.30
2007,05,08,02,37,3.40
2007,05,08,02,38,1.60
2007,05,08,02,39,2.70
2007,05,08,02,40,3.30
2007,05,08,02,41,2.70
2007,05,08,02,42,1.80
2007,05,08,02,43,3.50
2007,05,08,02,44,1.80
2007,05,08,02,45,2.30
2007,05,08,02,46,4.40
2007,05,08,02,47,5.00
2007,05,08,02,48,1.50
2007,05,08,02,49,2.90
2007,05,08,02,50,2.10
2007,05,08,02,51,4.10
2007,05,08,02,52,4.20
2007,05,08,02,53,2.00
2007,05,08,02,54,4.90
2007,05,08,02,55,3.90
2007,05,08,02,56,3.00
2007,05,08,02,57,3.00
2007,05,08,02,58,1.40
2007,05,08,02,59,3.00
2007,05,08,03,00,1.40
2007,05,08,03,01,1.90
2007,05,08,03,02,2.30
2007,05,08,03,03,3.30
2007,05,08,03,04,4.10
2007,05,08,03,05,4.30
2007,05,08,03,06,3.30
2007,05,08,03,07,2.90
2007,05,08,03,08,3.60
2007,05,08,03,09,2.30
2007,05,08,03,10,3.00
2007,05,08,03,11,3.60
2007,05,08,03,12,3.80
2007,05,08,03,13,5.80
2007,05,08,03,14,4.70
2007,05,08,03,15,4.20
2007,05,08,03,16,6.70
2007,05,08,03,17,4.10
2007,05,08,03,18,3.50
2007,05,08,03,19,3.50
2007,05,08,03,20,7.20
2007,05,08,03,21,4.60
2007,05,08,03,22,3.90
2007,05,08,03,23,3.50
2007,05,08,03,24,3.30
2007,05,08,03,25,4.80
2007,05,08,03,26,3.00
2007,05,08,03,27,6.40
2007,05,08,03,28,4.70
2007,05,08,03,29,5.10
2007,05,08,03,30,3.00
2007,05,08,03,31,4.20
2007,05,08,03,32,5.00
2007,05,08,03,33,3.80
2007,05,08,03,34,3.30
2007,05,08,03,35,3.90
2007,05,08,03,36,6.20
2007,05,08,03,37,4.60
2007,05,08,03,38,5.80
2007,05,08,03,39,3.00
2007,05,08,03,40,1.70
2007,05,08,03,41,3.30
2007,05,08,03,42,1.20
2007,05,08,03,43,1.90
2007,05,08,03,44,3.20
2007,05,08,03,45,1.20
2007,05,08,03,46,3.10
2007,05,08,03,47,1.10
2007,05,08,03,48,1.30
2007,05,08,03,49,0.80
2007,05,08,03,50,3.70
2007,05,08,03,51,2.90
2007,05,08,03,52,5.30
2007,05,08,03,53,3.50
2007,05,08,03,54,3.30
2007,05,08,03,55,3.00
2007,05,08,03,56,2.20
2007,05,08,03,57,1.60
2007,05,08,03,58,1.00
2007,05,08,03,59,0.90
2007,05,08,04,00,2.00
2007,05,08,04,01,4.30
2007,05,08,04,02,2.00
2007,05,08,04,03,3.60
2007,05,08,04,04,2.20
2007,05,08,04,05,4.60
2007,05,08,04,06,0.90
2007,05,08,04,07,6.90
2007,05,08,04,08,5.00
2007,05,08,04,09,5.70
2007,05,08,04,10,2.90
2007,05,08,04,11,5.40
2007,05,08,04,12,3.20
2007,05,08,04,13,6.00
2007,05,08,04,14,4.40
2007,05,08,04,15,0.80
2007,05,08,04,16,3.90
2007,05,08,04,17,2.50
2007,05,08,04,18,1.50
2007,05,08,04,19,2.10
2007,05,08,04,20,3.20
2007,05,08,04,21,3.40
2007,05,08,04,22,2.60
2007,05,08,04,23,0.50
2007,05,08,04,24,0.20
2007,05,08,04,25,0.80
2007,05,08,04,26,1.90
2007,05,08,04,27,1.00
2007,05,08,04,28,1.20
2007,05,08,04,29,2.70
2007,05,08,04,30,1.10
2007,05,08,04,31,2.90
2007,05,08,04,32,2.50
2007,05,08,04,33,1.80
2007,05,08,04,34,2.10
2007,05,08,04,35,1.10
2007,05,08,04,36,1.40
2007,05,08,04,37,0.80
2007,05,08,04,38,0.10
2007,05,08,04,39,1.90
2007,05,08,04,40,0.60
2007,05,08,04,41,0.50
2007,05,08,04,42,1.10
2007,05,08,04,43,1.10
2007,05,08,04,44,2.80
2007,05,08,04,45,0.90
2007,05,08,04,46,1.90
2007,05,08,04,47,3.50
2007,05,08,04,48,1.40
2007,05,08,04,49,2.40
2007,05,08,04,50,0.60
2007,05,08,04,51,0.60
2007,05,08,04,52,2.80
2007,05,08,04,53,0.30
2007,05,08,04,54,0.30
2007,05,08,04,55,2.10
2007,05,08,04,56,0.10
2007,05,08,04,57,0.20
2007,05,08,04,58,2.00
2007,05,08,04,59,1.30
2007,05,08,05,00,2.90
2007,05,08,05,01,0.20
2007,05,08,05,02,3.90
2007,05,08,05,03,2.40
2007,05,08,05,04,1.10
2007,05,08,05,05,1.80
2007,05,08,05,06,0.50
2007,05,08,05,07,0.30
2007,05,08,05,08,2.50
2007,05,08,05,09,4.70
2007,05,08,05,10,1.90
2007,05,08,05,11,1.30
2007,05,08,05,12,1.30
2007,05,08,05,13,1.40
2007,05,08,05,14,3.40
2007,05,08,05,15,0.90
2007,05,08,05,16,3.90
2007,05,08,05,17,0.30
2007,05,08,05,18,0.50
2007,05,08,05,19,2.10
2007,05,08,05,20,0.20
2007,05,08,05,21,1.90
2007,05,08,05,22,3.10
2007,05,08,05,23,1.30
2007,05,08,05,24,0.90
2007,05,08,05,25,3.70
2007,05,08,05,26,2.10
2007,05,08,05,27,1.90
2007,05,08,05,28,1.30
2007,05,08,05,29,0.20
2007,05,08,05,30,0.50
2007,05,08,05,31,0.00
2007,05,08,05,32,0.20
2007,05,08,05,33,0.70
2007,05,08,05,34,2.50
2007,05,08,05,35,0.80
2007,05,08,05,36,3.90
2007,05,08,05,37,2.20
2007,05,08,05,38,2.00
2007,05,08,05,39,0.80
2007,05,08,05,40,4.10
2007,05,08,05,41,0.20
2007,05,08,05,42,0.20
2007,05,08,05,43,1.20
2007,05,08,05,44,1.40
2007,05,08,05,45,1.80
2007,05,08,05,46,1.50
2007,05,08,05,47,1.10
2007,05,08,05,48,1.20
2007,05,08,05,49,0.30
2007,05,08,05,50,0.90
2007,05,08,05,51,0.00
2007,05,08,05,52,0.30
2007,05,08,05,53,1.90
2007,05,08,05,54,0.20
2007,05,08,05,55,3.00
2007,05,08,05,56,0.60
2007,05,08,05,57,1.20
2007,05,08,05,58,0.70
2007,05,08,05,59,1.70
2007,05,08,06,00,1.80
2007,05,08,06,01,0.20
2007,05,08,06,02,0.10
2007,05,08,06,03,0.20
2007,05,08,06,04,1.50
2007,05,08,06,05,0.20
2007,05,08,06,06,0.10
2007,05,08,06,07,1.40
2007,05,08,06,08,0.30
2007,05,08,06,09,0.10
2007,05,08,06,10,0.10
2007,05,08,06,11,0.20
2007,05,08,06,12,3.60
2007,05,08,06,13,0.60
2007,05,08,06,14,0.10
2007,05,08,06,15,0.40
2007,05,08,06,16,0.50
2007,05,08,06,17,2.40
2007,05,08,06,18,0.90
2007,05,08,06,19,0.70
2007,05,08,06,20,0.00
2007,05,08,06,21,0.20
2007,05,08,06,22,0.50
2007,05,08,06,23,2.70
2007,05,08,06,24,0.10
2007,05,08,06,25,0.80
2007,05,08,06,26,0.30
2007,05,08,06,27,1.40
2007,05,08,06,28,0.10
2007,05,08,06,29,4.80
2007,05,08,06,30,0.60
2007,05,08,06,31,2.30
2007,05,08,06,32,2.30
2007,05,08,06,33,1.30
2007,05,08,06,34,4.30
2007,05,08,06,35,1.30
2007,05,08,06,36,1.30
2007,05,08,06,37,4.80
2007,05,08,06,38,2.90
2007,05,08,06,39,2.30
2007,05,08,06,40,1.30
2007,05,08,06,41,0.60
2007,05,08,06,42,0.10
2007,05,08,06,43,0.20
2007,05,08,06,44,2.90
2007,05,08,06,45,3.20
2007,05,08,06,46,0.10
2007,05,08,06,47,2.50
2007,05,08,06,48,3.20
2007,05,08,06,49,0.40
2007,05,08,06,50,1.00
2007,05,08,06,51,0.30
2007,05,08,06,52,2.80
2007,05,08,06,53,0.30
2007,05,08,06,54,0.50
2007,05,08,06,55,0.20
2007,05,08,06,56,1.00
2007,05,08,06,57,2.40
2007,05,08,06,58,2.90
2007,05,08,06,59,0.50
2007,05,08,07,00,1.40
2007,05,08,07,01,1.20
2007,05,08,07,02,1.50
2007,05,08,07,03,2.40
2007,05,08,07,04,0.90
2007,05,08,07,05,1.00
2007,05,08,07,06,1.10
2007,05,08,07,07,1.80
2007,05,08,07,08,4.70
2007,05,08,07,09,4.70
2007,05,08,07,10,3.40
2007,05,08,07,11,0.70
2007,05,08,07,12,1.50
2007,05,08,07,13,2.60
2007,05,08,07,14,5.10
2007,05,08,07,15,1.30
2007,05,08,07,16,3.90
2007,05,08,07,17,1.20
2007,05,08,07,18,2.20
2007,05,08,07,19,2.50
2007,05,08,07,20,0.10
2007,05,08,07,21,0.10
2007,05,08,07,22,0.50
2007,05,08,07,23,1.10
2007,05,08,07,24,0.30
2007,05,08,07,25,0.50
2007,05,08,07,26,2.50
2007,05,08,07,27,3.70
2007,05,08,07,28,1.60
2007,05,08,07,29,1.40
2007,05,08,07,30,3.60
2007,05,08,07,31,6.90
2007,05,08,07,32,2.20
2007,05,08,07,33,1.50
2007,05,08,07,34,2.50
2007,05,08,07,35,2.70
2007,05,08,07,36,4.40
2007,05,08,07,37,0.30
2007,05,08,07,38,0.70
2007,05,08,07,39,2.60
2007,05,08,07,40,2.60
2007,05,08,07,41,2.80
2007,05,08,07,42,4.10
2007,05,08,07,43,3.70
2007,05,08,07,44,4.30
2007,05,08,07,45,5.30
2007,05,08,07,46,1.30
2007,05,08,07,47,3.10
2007,05,08,07,48,5.30
2007,05,08,07,49,3.00
2007,05,08,07,50,3.00
2007,05,08,07,51,4.20
2007,05,08,07,52,5.30
2007,05,08,07,53,4.60
2007,05,08,07,54,5.80
2007,05,08,07,55,5.10
2007,05,08,07,56,4.20
2007,05,08,07,57,6.50
2007,05,08,07,58,4.50
2007,05,08,07,59,3.50
2007,05,08,08,00,3.30
2007,05,08,08,01,6.20
2007,05,08,08,02,5.20
2007,05,08,08,03,5.40
2007,05,08,08,04,7.30
2007,05,08,08,05,6.40
2007,05,08,08,06,6.90
2007,05,08,08,07,7.70
2007,05,08,08,08,6.80
2007,05,08,08,09,5.60
2007,05,08,08,10,5.10
2007,05,08,08,11,9.40
2007,05,08,08,12,6.20
2007,05,08,08,13,3.60
2007,05,08,08,14,4.30
2007,05,08,08,15,5.50
2007,05,08,08,16,7.70
2007,05,08,08,17,4.60
2007,05,08,08,18,6.10
2007,05,08,08,19,5.20
2007,05,08,08,20,8.20
2007,05,08,08,21,9.80
2007,05,08,08,22,6.00
2007,05,08,08,23,6.90
2007,05,08,08,24,8.60
2007,05,08,08,25,4.70
2007,05,08,08,26,7.40
2007,05,08,08,27,6.90
2007,05,08,08,28,7.30
2007,05,08,08,29,5.00
2007,05,08,08,30,5.30
2007,05,08,08,31,4.50
2007,05,08,08,32,3.60
2007,05,08,08,33,8.90
2007,05,08,08,34,6.40
2007,05,08,08,35,9.10
2007,05,08,08,36,4.40
2007,05,08,08,37,3.00
2007,05,08,08,38,5.90
2007,05,08,08,39,7.50
2007,05,08,08,40,8.20
2007,05,08,08,41,7.60
2007,05,08,08,42,5.10
2007,05,08,08,43,6.90
2007,05,08,08,44,9.40
2007,05,08,08,45,6.90
2007,05,08,08,46,5.00
2007,05,08,08,47,3.40
2007,05,08,08,48,5.40
2007,05,08,08,49,5.90
2007,05,08,08,50,8.60
2007,05,08,08,51,8.30
2007,05,08,08,52,7.10
2007,05,08,08,53,7.10
2007,05,08,08,54,5.60
2007,05,08,08,55,3.60
2007,05,08,08,56,4.60
2007,05,08,08,57,5.20
2007,05,08,08,58,6.30
2007,05,08,08,59,5.30
2007,05,08,09,00,9.30
2007,05,08,09,01,5.00
2007,05,08,09,02,7.00
2007,05,08,09,03,6.40
2007,05,08,09,04,8.10
2007,05,08,09,05,8.10
2007,05,08,09,06,6.40
2007,05,08,09,07,8.20
2007,05,08,09,08,4.70
2007,05,08,09,09,6.10
2007,05,08,09,10,6.80
2007,05,08,09,11,6.00
2007,05,08,09,12,6.10
2007,05,08,09,13,5.70
2007,05,08,09,14,7.60
2007,05,08,09,15,6.60
2007,05,08,09,16,6.40
2007,05,08,09,17,4.60
2007,05,08,09,18,5.30
2007,05,08,09,19,7.80
2007,05,08,09,20,6.40
2007,05,08,09,21,5.40
2007,05,08,09,22,6.40
2007,05,08,09,23,6.90
2007,05,08,09,24,8.50
2007,05,08,09,25,5.30
2007,05,08,09,26,4.20
2007,05,08,09,27,4.00
2007,05,08,09,28,4.40
2007,05,08,09,29,10.30
2007,05,08,09,30,8.30
2007,05,08,09,31,6.70
2007,05,08,09,32,6.90
2007,05,08,09,33,6.10
2007,05,08,09,34,5.00
2007,05,08,09,35,8.40
2007,05,08,09,36,9.70
2007,05,08,09,37,4.60
2007,05,08,09,38,6.00
2007,05,08,09,39,4.60
2007,05,08,09,40,5.20
2007,05,08,09,41,6.20
2007,05,08,09,42,6.20
2007,05,08,09,43,5.90
2007,05,08,09,44,7.30
2007,05,08,09,45,5.90
2007,05,08,09,46,5.50
2007,05,08,09,47,3.50
2007,05,08,09,48,8.10
2007,05,08,09,49,8.00
2007,05,08,09,50,8.00
2007,05,08,09,51,4.70
2007,05,08,09,52,4.30
2007,05,08,09,53,5.80
2007,05,08,09,54,7.80
2007,05,08,09,55,2.60
2007,05,08,09,56,3.70
2007,05,08,09,57,9.50
2007,05,08,09,58,6.90
2007,05,08,09,59,10.30
2007,05,08,10,00,10.30
2007,05,08,10,01,7.50
2007,05,08,10,02,9.80
2007,05,08,10,03,7.90
2007,05,08,10,04,4.00
2007,05,08,10,05,6.40
2007,05,08,10,06,7.90
2007,05,08,10,07,3.90
2007,05,08,10,08,7.50
2007,05,08,10,09,3.70
2007,05,08,10,10,4.20
2007,05,08,10,11,6.80
2007,05,08,10,12,4.90
2007,05,08,10,13,8.10
2007,05,08,10,14,8.10
2007,05,08,10,15,10.30
2007,05,08,10,16,8.60
2007,05,08,10,17,10.30
2007,05,08,10,18,7.40
2007,05,08,10,19,9.00
2007,05,08,10,20,6.90
2007,05,08,10,21,8.70
2007,05,08,10,22,7.90
2007,05,08,10,23,6.10
2007,05,08,10,24,13.10
2007,05,08,10,25,5.10
2007,05,08,10,26,6.30
2007,05,08,10,27,6.50
2007,05,08,10,28,7.90
2007,05,08,10,29,7.10
2007,05,08,10,30,11.30
2007,05,08,10,31,10.30
2007,05,08,10,32,12.00
2007,05,08,10,33,11.60
2007,05,08,10,34,6.40
2007,05,08,10,35,5.70
2007,05,08,10,36,10.20
2007,05,08,10,37,9.20
2007,05,08,10,38,5.80
2007,05,08,10,39,7.70
2007,05,08,10,40,9.10
2007,05,08,10,41,9.60
2007,05,08,10,42,5.90
2007,05,08,10,43,11.90
2007,05,08,10,44,6.40
2007,05,08,10,45,13.90
2007,05,08,10,46,5.80
2007,05,08,10,47,12.00
2007,05,08,10,48,12.10
2007,05,08,10,49,7.60
2007,05,08,10,50,12.50
2007,05,08,10,51,7.60
2007,05,08,10,52,8.00
2007,05,08,10,53,5.80
2007,05,08,10,54,9.30
2007,05,08,10,55,6.40
2007,05,08,10,56,6.40
2007,05,08,10,57,3.00
2007,05,08,10,58,3.80
2007,05,08,10,59,5.40
2007,05,08,11,00,1.50
2007,05,08,11,01,3.00
2007,05,08,11,02,1.00
2007,05,08,11,03,4.90
2007,05,08,11,04,4.10
2007,05,08,11,05,1.40
2007,05,08,11,06,2.50
2007,05,08,11,07,1.10
2007,05,08,11,08,4.90
2007,05,08,11,09,7.60
2007,05,08,11,10,3.80
2007,05,08,11,11,5.50
2007,05,08,11,12,5.50
2007,05,08,11,13,1.70
2007,05,08,11,14,4.00
2007,05,08,11,15,4.10
2007,05,08,11,16,3.60
2007,05,08,11,17,8.10
2007,05,08,11,18,4.10
2007,05,08,11,19,8.00
2007,05,08,11,20,9.70
2007,05,08,11,21,4.20
2007,05,08,11,22,8.60
2007,05,08,11,23,12.60
2007,05,08,11,24,10.00
2007,05,08,11,25,10.80
2007,05,08,11,26,12.50
2007,05,08,11,27,9.50
2007,05,08,11,28,7.60
2007,05,08,11,29,11.40
2007,05,08,11,30,7.00
2007,05,08,11,31,9.70
2007,05,08,11,32,12.70
2007,05,08,11,33,9.70
2007,05,08,11,34,12.50
2007,05,08,11,35,17.40
2007,05,08,11,36,13.20
2007,05,08,11,37,13.50
2007,05,08,11,38,12.80
2007,05,08,11,39,16.20
2007,05,08,11,40,16.30
2007,05,08,11,41,14.70
2007,05,08,11,42,11.20
2007,05,08,11,43,6.40
2007,05,08,11,44,7.10
2007,05,08,11,45,14.10
2007,05,08,11,46,11.30
2007,05,08,11,47,13.60
2007,05,08,11,48,9.80
2007,05,08,11,49,17.70
2007,05,08,11,50,13.10
2007,05,08,11,51,24.10
2007,05,08,11,52,4.70
2007,05,08,11,53,13.40
2007,05,08,11,54,16.30
2007,05,08,11,55,8.20
2007,05,08,11,56,13.00
2007,05,08,11,57,13.60
2007,05,08,11,58,18.50
2007,05,08,11,59,18.90
2007,05,08,12,00,15.80
2007,05,08,12,01,13.30
2007,05,08,12,02,10.90
2007,05,08,12,03,9.60
2007,05,08,12,04,13.10
2007,05,08,12,05,14.00
2007,05,08,12,06,11.20
2007,05,08,12,07,9.70
2007,05,08,12,08,9.00
2007,05,08,12,09,9.10
2007,05,08,12,10,7.50
2007,05,08,12,11,8.70
2007,05,08,12,12,8.90
2007,05,08,12,13,8.70
2007,05,08,12,14,6.50
2007,05,08,12,15,11.00
2007,05,08,12,16,8.70
2007,05,08,12,17,11.40
2007,05,08,12,18,8.30
2007,05,08,12,19,10.10
2007,05,08,12,20,10.50
2007,05,08,12,21,9.60
2007,05,08,12,22,7.40
2007,05,08,12,23,11.50
2007,05,08,12,24,8.30
2007,05,08,12,25,6.60
2007,05,08,12,26,5.10
2007,05,08,12,27,8.90
2007,05,08,12,28,8.10
2007,05,08,12,29,8.00
2007,05,08,12,30,10.20
2007,05,08,12,31,9.30
2007,05,08,12,32,6.70
2007,05,08,12,33,6.00
2007,05,08,12,34,6.90
2007,05,08,12,35,10.10
2007,05,08,12,36,9.30
2007,05,08,12,37,5.50
2007,05,08,12,38,6.40
2007,05,08,12,39,3.20
2007,05,08,12,40,8.70
2007,05,08,12,41,7.80
2007,05,08,12,42,3.20
2007,05,08,12,43,8.70
2007,05,08,12,44,12.00
2007,05,08,12,45,7.70
2007,05,08,12,46,5.40
2007,05,08,12,47,4.70
2007,05,08,12,48,10.90
2007,05,08,12,49,10.50
2007,05,08,12,50,9.70
2007,05,08,12,51,11.80
2007,05,08,12,52,10.20
2007,05,08,12,53,7.60
2007,05,08,12,54,6.00
2007,05,08,12,55,7.20
2007,05,08,12,56,7.00
2007,05,08,12,57,7.40
2007,05,08,12,58,5.00
2007,05,08,12,59,5.40
2007,05,08,13,00,4.40
2007,05,08,13,01,7.90
2007,05,08,13,02,8.70
2007,05,08,13,03,11.60
2007,05,08,13,04,8.70
2007,05,08,13,05,8.10
2007,05,08,13,06,5.70
2007,05,08,13,07,10.20
2007,05,08,13,08,6.90
2007,05,08,13,09,7.70
2007,05,08,13,10,5.50
2007,05,08,13,11,6.20
2007,05,08,13,12,7.20
2007,05,08,13,13,5.10
2007,05,08,13,14,7.10
2007,05,08,13,15,6.30
2007,05,08,13,16,7.10
2007,05,08,13,17,9.10
2007,05,08,13,18,5.60
2007,05,08,13,19,6.30
2007,05,08,13,20,9.30
2007,05,08,13,21,7.30
2007,05,08,13,22,4.30
2007,05,08,13,23,4.00
2007,05,08,13,24,4.30
2007,05,08,13,25,4.20
2007,05,08,13,26,5.60
2007,05,08,13,27,5.50
2007,05,08,13,28,5.30
2007,05,08,13,29,7.50
2007,05,08,13,30,7.50
2007,05,08,13,31,10.40
2007,05,08,13,32,13.10
2007,05,08,13,33,10.00
2007,05,08,13,34,14.30
2007,05,08,13,35,14.40
2007,05,08,13,36,9.70
2007,05,08,13,37,8.40
2007,05,08,13,38,11.70
2007,05,08,13,39,16.40
2007,05,08,13,40,6.80
2007,05,08,13,41,10.80
2007,05,08,13,42,16.00
2007,05,08,13,43,10.70
2007,05,08,13,44,9.10
2007,05,08,13,45,10.90
2007,05,08,13,46,4.90
2007,05,08,13,47,11.20
2007,05,08,13,48,11.00
2007,05,08,13,49,8.70
2007,05,08,13,50,12.60
2007,05,08,13,51,18.00
2007,05,08,13,52,17.40
2007,05,08,13,53,21.50
2007,05,08,13,54,15.50
2007,05,08,13,55,19.60
2007,05,08,13,56,17.10
2007,05,08,13,57,14.10
2007,05,08,13,58,19.40
2007,05,08,13,59,12.60
2007,05,08,14,00,15.80
2007,05,08,14,01,11.90
2007,05,08,14,02,12.70
2007,05,08,14,03,12.40
2007,05,08,14,04,11.80
2007,05,08,14,05,9.10
2007,05,08,14,06,13.70
2007,05,08,14,07,10.10
2007,05,08,14,08,19.80
2007,05,08,14,09,20.20
2007,05,08,14,10,16.90
2007,05,08,14,11,15.80
2007,05,08,14,12,16.30
2007,05,08,14,13,20.50
2007,05,08,14,14,10.70
2007,05,08,14,15,10.90
2007,05,08,14,16,14.70
2007,05,08,14,17,13.80
2007,05,08,14,18,13.20
2007,05,08,14,19,13.40
2007,05,08,14,20,16.90
2007,05,08,14,21,13.50
2007,05,08,14,22,12.10
2007,05,08,14,23,12.80
2007,05,08,14,24,12.40
2007,05,08,14,25,11.50
2007,05,08,14,26,5.70
2007,05,08,14,27,11.10
2007,05,08,14,28,7.90
2007,05,08,14,29,16.10
2007,05,08,14,30,9.30
2007,05,08,14,31,10.40
2007,05,08,14,32,13.40
2007,05,08,14,33,16.50
2007,05,08,14,34,15.70
2007,05,08,14,35,12.00
2007,05,08,14,36,11.60
2007,05,08,14,37,15.60
2007,05,08,14,38,14.50
2007,05,08,14,39,12.70
2007,05,08,14,40,18.40
2007,05,08,14,41,12.00
2007,05,08,14,42,10.00
2007,05,08,14,43,14.60
2007,05,08,14,44,16.20
2007,05,08,14,45,16.50
2007,05,08,14,46,10.40
2007,05,08,14,47,11.20
2007,05,08,14,48,8.00
2007,05,08,14,49,8.60
2007,05,08,14,50,10.60
2007,05,08,14,51,16.30
2007,05,08,14,52,11.70
2007,05,08,14,53,12.70
2007,05,08,14,54,22.40
2007,05,08,14,55,17.00
2007,05,08,14,56,6.60
2007,05,08,14,57,13.90
2007,05,08,14,58,16.70
2007,05,08,14,59,14.30
2007,05,08,15,00,16.30
2007,05,08,15,01,20.20
2007,05,08,15,02,16.70
2007,05,08,15,03,18.60
2007,05,08,15,04,13.50
2007,05,08,15,05,18.30
2007,05,08,15,06,15.30
2007,05,08,15,07,15.40
2007,05,08,15,08,18.60
2007,05,08,15,09,11.30
2007,05,08,15,10,11.30
2007,05,08,15,11,9.00
2007,05,08,15,12,11.20
2007,05,08,15,13,12.00
2007,05,08,15,14,8.10
2007,05,08,15,15,10.40
2007,05,08,15,16,10.50
2007,05,08,15,17,7.20
2007,05,08,15,18,15.20
2007,05,08,15,19,16.20
2007,05,08,15,20,11.30
2007,05,08,15,21,7.30
2007,05,08,15,22,7.00
2007,05,08,15,23,6.70
2007,05,08,15,24,10.60
2007,05,08,15,25,9.00
2007,05,08,15,26,8.60
2007,05,08,15,27,13.90
2007,05,08,15,28,10.40
2007,05,08,15,29,4.10
2007,05,08,15,30,10.20
2007,05,08,15,31,16.50
2007,05,08,15,32,11.60
2007,05,08,15,33,16.30
2007,05,08,15,34,17.40
2007,05,08,15,35,14.60
2007,05,08,15,36,25.60
2007,05,08,15,37,14.60
2007,05,08,15,38,18.00
2007,05,08,15,39,17.50
2007,05,08,15,40,17.30
2007,05,08,15,41,20.60
2007,05,08,15,42,18.00
2007,05,08,15,43,27.50
2007,05,08,15,44,18.60
2007,05,08,15,45,19.30
2007,05,08,15,46,16.00
2007,05,08,15,47,16.00
2007,05,08,15,48,11.80
2007,05,08,15,49,23.00
2007,05,08,15,50,17.20
2007,05,08,15,51,23.50
2007,05,08,15,52,27.90
2007,05,08,15,53,16.70
2007,05,08,15,54,21.10
2007,05,08,15,55,22.50
2007,05,08,15,56,15.60
2007,05,08,15,57,25.00
2007,05,08,15,58,19.20
2007,05,08,15,59,23.10
2007,05,08,16,00,21.30
2007,05,08,16,01,18.10
2007,05,08,16,02,19.30
2007,05,08,16,03,19.20
2007,05,08,16,04,14.30
2007,05,08,16,05,16.40
2007,05,08,16,06,24.50
2007,05,08,16,07,12.70
2007,05,08,16,08,9.70
2007,05,08,16,09,15.00
2007,05,08,16,10,13.30
2007,05,08,16,11,10.30
2007,05,08,16,12,22.30
2007,05,08,16,13,15.70
2007,05,08,16,14,17.00
2007,05,08,16,15,17.40
2007,05,08,16,16,19.20
2007,05,08,16,17,10.60
2007,05,08,16,18,19.50
2007,05,08,16,19,14.30
2007,05,08,16,20,9.60
2007,05,08,16,21,19.10
2007,05,08,16,22,15.80
2007,05,08,16,23,12.10
2007,05,08,16,24,23.00
2007,05,08,16,25,17.50
2007,05,08,16,26,15.80
2007,05,08,16,27,15.80
2007,05,08,16,28,18.20
2007,05,08,16,29,14.10
2007,05,08,16,30,11.70
2007,05,08,16,31,23.00
2007,05,08,16,32,12.00
2007,05,08,16,33,23.30
2007,05,08,16,34,20.20
2007,05,08,16,35,14.80
2007,05,08,16,36,18.90
2007,05,08,16,37,18.90
2007,05,08,16,38,17.90
2007,05,08,16,39,18.50
2007,05,08,16,40,10.30
2007,05,08,16,41,13.70
2007,05,08,16,42,24.10
2007,05,08,16,43,14.70
2007,05,08,16,44,11.00
2007,05,08,16,45,11.80
2007,05,08,16,46,18.20
2007,05,08,16,47,19.50
2007,05,08,16,48,20.20
2007,05,08,16,49,17.30
2007,05,08,16,50,15.80
2007,05,08,16,51,15.00
2007,05,08,16,52,14.70
2007,05,08,16,53,19.00
2007,05,08,16,54,14.60
2007,05,08,16,55,16.60
2007,05,08,16,56,12.30
2007,05,08,16,57,6.00
2007,05,08,16,58,11.00
2007,05,08,16,59,7.80
2007,05,08,17,00,15.50
2007,05,08,17,01,18.20
2007,05,08,17,02,11.50
2007,05,08,17,03,7.90
2007,05,08,17,04,8.10
2007,05,08,17,05,17.60
2007,05,08,17,06,18.00
2007,05,08,17,07,10.50
2007,05,08,17,08,13.00
2007,05,08,17,09,12.70
2007,05,08,17,10,12.60
2007,05,08,17,11,10.40
2007,05,08,17,12,9.80
2007,05,08,17,13,11.50
2007,05,08,17,14,16.50
2007,05,08,17,15,11.30
2007,05,08,17,16,11.90
2007,05,08,17,17,17.80
2007,05,08,17,18,12.20
2007,05,08,17,19,15.20
2007,05,08,17,20,15.60
2007,05,08,17,21,20.00
2007,05,08,17,22,14.70
2007,05,08,17,23,19.70
2007,05,08,17,24,17.70
2007,05,08,17,25,9.80
2007,05,08,17,26,13.40
2007,05,08,17,27,17.20
2007,05,08,17,28,13.70
2007,05,08,17,29,12.50
2007,05,08,17,30,14.10
2007,05,08,17,31,15.20
2007,05,08,17,32,6.40
2007,05,08,17,33,9.10
2007,05,08,17,34,15.10
2007,05,08,17,35,11.50
2007,05,08,17,36,5.60
2007,05,08,17,37,18.00
2007,05,08,17,38,18.10
2007,05,08,17,39,13.20
2007,05,08,17,40,16.40
2007,05,08,17,41,9.90
2007,05,08,17,42,10.80
2007,05,08,17,43,18.50
2007,05,08,17,44,5.80
2007,05,08,17,45,16.00
2007,05,08,17,46,5.70
2007,05,08,17,47,13.80
2007,05,08,17,48,12.60
2007,05,08,17,49,6.20
2007,05,08,17,50,14.30
2007,05,08,17,51,18.60
2007,05,08,17,52,20.30
2007,05,08,17,53,10.70